User: anonymous   Login
Location: Kirkcaldy
(50.3333°N, 113.2333°W)
Time: 23:12:28
(UTC+00:00)
Language:

PRISM - Orbit

View from above orbital plane
View from above orbital plane
View from above satellite
View from above satellite

Ground track
Ground track

The orbit data is extracted from the following two-line orbital elements,

1 33493U 09002B   23340.77156057  .00011910  00000-0  71058-3 0  9999
2 33493  98.2333   7.8719 0014238 180.8306 179.2901 15.11233684809772
Epoch (UTC): 06 December 2023 18:31:02
Eccentricity: 0.0014238
inclination: 98.2333°
perigee height: 522 km
apogee height: 542 km
right ascension of ascending node: 7.8719°
argument of perigee: 180.8306°
revolutions per day: 15.11233684
mean anomaly at epoch: 179.2901°
orbit number at epoch: 80977

The dashed part of the orbit path shows where the satellite is in the earth's shadow,  

DLR